• Join FlightAware (Why Join?)
  • Login
  • US Flag 
02:09PM EDT


 

Airport Tracker/Info


-or-


 

Live Flight TrackerFlight Track Log ✈ N700YN ✈ 28-May-2014 ✈ KLOM - 4G4

Flight Track Log - Related Links

Times and Time Zones

All times are in EDT time to prevent confusion due to time zone crossing. See the N700YN flight status page for this flight to view local times or setup timezone preferences in your user account.

Time Position Orientation Groundspeed Altitude Reporting Facility
EDT Latitude Longitude Course Direction KTS MPH feet Rate Location/Type
06:48PM 40.1500 -75.2500 37° Northeast 112 129 800  Level Philadelphia TRACON
06:49PM 40.1667 -75.2333 37° Northeast 130 150 1,500 1,500 Climbing Philadelphia TRACON
06:50PM 40.1833 -75.2167 37° Northeast 159 183 3,100 1,560 Climbing Philadelphia TRACON
06:51PM 40.2022 -75.2850 290° West 163 188 5,000 1,440 Climbing New York Center
06:52PM 40.2022 -75.3367 270° West 163 188 6,400 1,440 Climbing New York Center
06:53PM 40.2042 -75.3964 272° West 163 188 7,900 1,380 Climbing New York Center
06:54PM 40.2128 -75.4458 283° West 161 185 9,200 1,320 Climbing New York Center
06:55PM 40.2186 -75.5033 278° West 161 185 10,600 1,320 Climbing New York Center
06:56PM 40.2267 -75.5667 279° West 161 185 11,900 660 Climbing New York Center
06:57PM 40.2619 -75.6206 311° West 174 200 12,000  Climbing New York Center
06:58PM 40.3011 -75.6778 312° West 205 236 12,000 -60 Level New York Center
06:59PM 40.3406 -75.7350 312° West 225 259 11,900 -120 Descending New York Center
07:00PM 40.3817 -75.7981 311° West 225 259 11,800 660 Descending New York Center
07:01PM 40.4228 -75.8611 311° West 213 245 13,300 1,260 Climbing New York Center
07:02PM 40.4450 -75.9225 295° West 195 224 14,400 1,080 Climbing New York Center
07:03PM 40.4550 -75.9806 283° West 189 217 15,500 780 Climbing New York Center
07:04PM 40.4664 -76.0497 282° West 184 212 16,000 240 Climbing New York Center
07:05PM 40.4811 -76.1408 282° West 214 246 16,000 120 Level New York Center
07:06PM 40.4939 -76.2267 281° West 236 272 16,300 420 Climbing New York Center
07:07PM 40.5053 -76.2958 282° West 236 272 16,900 300 Climbing New York Center
07:08PM 40.5178 -76.3814 281° West 236 272 16,900 480 Level New York Center
07:09PM 40.5325 -76.4700 282° West 241 277 17,900 840 Climbing New York Center
07:10PM 40.5433 -76.5447 281° West 222 255 18,700 840 Climbing New York Center
07:11PM 40.5561 -76.6222 282° West 222 255 19,600 660 Climbing New York Center
07:12PM 40.5775 -76.6978 290° West 222 255 20,000 180 Climbing New York Center
07:13PM 40.6006 -76.7792 290° West 233 268 20,000  Level New York Center
07:14PM 40.6231 -76.8658 289° West 244 281 20,000  Level New York Center
07:15PM 40.6458 -76.9528 289° West 250 288 20,000  Level New York Center
07:16PM 40.6703 -77.0425 290° West 255 293 20,000  Level New York Center
07:17PM 40.6925 -77.1294 289° West 255 293 20,000  Level New York Center
07:18PM 40.7150 -77.2164 289° West 255 293 20,000  Level New York Center
07:19PM 40.7392 -77.3064 290° West 255 293 20,000  Level New York Center
07:20PM 40.7625 -77.3953 289° West 256 295 20,000  Level Cleveland Center
07:21PM 40.7850 -77.4844 288° West 257 296 20,000  Level Cleveland Center
07:22PM 40.8114 -77.5886 289° West 263 303 20,000  Level Cleveland Center
07:23PM 40.8294 -77.6650 287° West 259 298 20,100  Climbing Cleveland Center
07:24PM 40.8594 -77.7711 291° West 259 298 20,000 -60 Descending Cleveland Center
07:25PM 40.8822 -77.8606 289° West 259 298 20,000 -60 Level Cleveland Center
07:26PM 40.9044 -77.9500 288° West 258 297 19,900 -60 Descending Cleveland Center
07:27PM 40.9156 -78.0431 279° West 263 303 19,900  Level Cleveland Center
07:28PM 40.9189 -78.1389 273° West 263 303 20,000  Climbing Cleveland Center
07:29PM 40.9225 -78.2414 273° West 263 303 20,000 -60 Level Cleveland Center
07:30PM 40.9242 -78.3292 271° West 245 282 19,900  Descending Cleveland Center
07:31PM 40.9267 -78.4153 272° West 239 275 20,000  Climbing Cleveland Center
07:32PM 40.9283 -78.5186 271° West 237 273 19,900  Descending Cleveland Center
07:33PM 40.9311 -78.6094 272° West 245 282 20,000  Climbing Cleveland Center
07:34PM 40.9333 -78.7031 272° West 251 289 19,900 -420 Descending Cleveland Center
07:35PM 40.9358 -78.7950 272° West 252 290 19,200 -780 Descending Cleveland Center
07:36PM 40.9378 -78.8878 272° West 252 290 18,400 -780 Descending Cleveland Center
07:37PM 40.9403 -78.9853 272° West 265 305 17,700 -780 Descending Cleveland Center
07:38PM 40.9425 -79.1014 271° West 265 305 16,900 -900 Descending Cleveland Center
07:39PM 40.9433 -79.1989 271° West 265 305 15,900 -1,020 Descending Cleveland Center
07:40PM 40.9453 -79.2989 272° West 269 310 14,900 -1,020 Descending Cleveland Center
07:42PM 40.9461 -79.3972 271° West 268 308 13,900 -1,020 Descending Cleveland Center
07:43PM 40.9481 -79.4903 272° West 258 297 12,800 -1,080 Descending Cleveland Center
07:44PM 40.9489 -79.5792 271° West 246 283 11,700 -1,200 Descending Cleveland Center
07:45PM 40.9506 -79.6853 271° West 243 280 10,400 -1,260 Descending Cleveland Center
07:46PM 40.9514 -79.7683 271° West 231 266 9,200 -1,080 Descending Cleveland Center
07:47PM 40.9525 -79.8522 271° West 228 262 8,200 -540 Descending Cleveland Center
07:48PM 40.9542 -79.9292 272° West 208 239 8,100 -360 Descending Cleveland Center
07:49PM 40.9553 -79.9994 271° West 194 223 7,500 -780 Descending Cleveland Center
07:50PM 40.9558 -80.0733 271° West 198 228 6,600 -1,020 Descending Cleveland Center
07:51PM 40.9575 -80.1642 271° West 206 237 5,500 -1,020 Descending Cleveland Center
07:52PM 40.9578 -80.2408 270° West 209 241 4,600 -840 Descending Cleveland Center
07:53PM 40.9586 -80.3167 271° West 209 241 3,800 -780 Descending Cleveland Center
07:54PM 40.9575 -80.3906 269° West 205 236 3,100 -360 Descending Cleveland Center
07:55PM 40.9597 -80.4531 273° West 175 201 3,100  Level Cleveland Center
07:56PM 40.9633 -80.5272 274° West 169 194 3,100  Level Cleveland Center
07:58PM 40.9500 -80.6515 270° West  Level FlightAware Approximate
08:05PM 40.9500 -80.6667 270° West  Level FlightAware Approximate
08:06PM 40.9618 -80.6773 270° West  Level Estimated